#timestamp,LO_Frequency,Hit,StdDev 
1579568415.8,286047006.4,N
1579568435.6,286046999.5,N
1579568455.5,286047006.1,N
1579568475.3,286047008.5,N
1579568495.1,286047002.4,N
1579568515.9,286047004.7,N
1579568535.7,286047009.3,N
1579568555.5,286047012.8,N
1579568575.4,286047014.8,N
1579568595.2,286047011.6,N
1579568615.1,286047009.0,N
1579568616.0,286047009.0,N
1579568635.8,286047011.8,N
1579568655.6,286047012.8,N
1579568675.5,286047009.4,N
1579568695.3,286047009.1,N
1579568715.1,286047008.3,N
1579568735.9,286047001.6,N
1579568755.7,286047007.2,N
1579568775.6,286047007.4,N
1579568795.4,286047010.8,N
1579568815.2,286047007.7,N
1579568835.1,286047009.1,N
1579568836.0,286047009.1,N
1579568855.8,286047006.4,N
1579568875.7,286047009.4,N
1579568895.5,286047009.9,N
1579568915.3,286047008.7,N
1579568935.2,286047010.4,N
1579568955.0,286047009.5,N
1579568955.9,286047009.5,N
1579568975.8,286047014.8,Y
1579568995.6,286047006.2,P
1579569015.4,286047013.8,P
1579569035.3,286047006.2,N
1579569055.1,286047008.0,N
1579569075.9,286047007.7,N
1579569095.7,286047004.9,N
1579569115.5,286046996.8,N
1579569135.4,286047000.8,N
1579569155.2,286046993.5,N
1579569175.0,286046998.3,N
1579569175.9,286046998.3,N
1579569195.8,286047022.9,Y
1579569215.6,286047000.4,P
1579569235.5,286047005.6,P
1579569255.3,286047000.8,N
1579569275.1,286046995.4,N
1579569295.9,286046993.1,N
1579569315.7,286046990.1,N
1579569335.6,286046997.2,N
1579569355.4,286046995.0,N
1579569375.2,286046995.1,N
1579569395.1,286046997.4,N
1579569396.0,286046997.4,N
1579569415.8,286047002.1,N
1579569435.7,286047004.0,N
1579569455.5,286046997.2,N
1579569475.4,286046996.5,N
1579569495.2,286047003.6,N
1579569515.0,286047001.4,N
1579569515.9,286047001.4,N
1579569535.8,286047000.0,N
1579569555.6,286047005.9,N
1579569575.5,286047003.4,N
1579569595.3,286047003.7,N
1579569615.1,286046996.6,N
1579569635.9,286047005.4,N
1579569655.7,286047006.8,N
1579569675.5,286047005.2,N
1579569695.4,286047003.1,N
1579569715.2,286046999.9,N
1579569735.1,286046998.9,N
1579569736.0,286046998.9,N
1579569755.8,286046992.6,N
1579569805.7,286046994.4,E
1579569815.6,286046992.6,N
1579569835.4,286046998.2,P
1579569855.3,286046998.1,N
1579569875.1,286046999.1,N
1579569895.9,286047001.5,N
1579569915.7,286047005.5,N
1579569935.5,286047008.5,N
1579569955.4,286047010.7,N
1579569975.2,286047005.5,N
1579569995.0,286047008.1,N
1579569995.9,286047008.1,N
1579570015.8,286047013.4,N
1579570035.6,286047017.5,N
1579570055.5,286047018.7,N
1579570075.3,286047014.3,N
1579570095.1,286047017.2,N
1579570115.9,286047014.3,N
1579570135.7,286047011.6,N
1579570155.5,286047009.9,N
1579570175.4,286047012.9,N
1579570195.2,286047017.1,N
1579570215.1,286047015.2,N
1579570216.0,286047015.2,N
1579570235.8,286047012.8,N
1579570255.6,286047010.1,N
1579570275.5,286047016.5,N
1579570295.3,286047015.6,N
1579570315.1,286047016.3,N
1579570335.9,286047012.9,N
1579570355.7,286047011.3,N
1579570375.6,286047016.5,N
1579570395.4,286047014.2,N
1579570415.2,286047019.4,Y
1579570435.1,286047004.1,P
1579570436.0,286047004.1,N
1579570455.8,286046997.5,N
1579570475.6,286047007.4,N
1579570495.5,286047004.7,N
1579570515.3,286047008.5,N
1579570535.2,286046998.5,N
1579570555.9,286047005.5,N
1579570575.7,286047005.9,N
1579570595.6,286047001.9,N
1579570615.4,286047002.3,N
1579570635.2,286047002.0,N
1579570655.1,286047006.3,N
1579570656.0,286047006.3,N
1579570675.8,286047006.8,N
1579570695.7,286047001.5,N
1579570715.5,286047003.4,N
1579570735.3,286047005.0,N
1579570755.2,286047006.8,N
1579570775.0,286047008.7,N
1579570775.9,286047008.7,N
1579570795.8,286047013.9,Y
1579570815.6,286047007.0,P
1579570835.4,286047001.4,N
1579570855.3,286047005.6,N
1579570875.1,286047006.3,Y
1579570895.9,286047006.9,P
1579570915.7,286047008.0,P
1579570935.5,286047006.0,P
1579570955.4,286047000.5,N
1579570975.2,286047006.0,N
1579570995.0,286047008.7,Y
1579570995.9,286047008.7,P
1579571015.8,286047008.5,P
1579571035.6,286047003.3,N
1579571055.5,286047000.5,N
1579571075.3,286046997.4,N
1579571095.1,286046992.0,N
1579571115.9,286046994.2,N
1579571135.7,286046998.4,N
1579571155.5,286046996.2,N
1579571175.4,286046996.7,N
1579571195.2,286047005.2,N
1579571215.1,286047009.2,N
1579571216.0,286047009.2,N
1579571235.8,286047003.9,N
1579571255.6,286047003.1,N
1579571275.5,286047005.8,N
1579571295.3,286047004.5,N
1579571315.1,286047003.9,N
1579571335.9,286047005.1,N
1579571355.7,286047008.8,N
1579571375.6,286047004.5,N
1579571395.4,286047006.1,N
1579571415.2,286047012.3,N
1579571435.1,286047006.4,N
1579571436.0,286047006.4,N
1579571455.8,286046999.9,N
1579571475.6,286046999.0,N
1579571495.5,286047000.8,N
1579571515.3,286047000.3,N
1579571535.2,286047002.4,N
1579571555.9,286047003.6,N
1579571575.7,286047006.2,N
1579571595.6,286047007.2,N
1579571615.4,286046996.6,N
1579571635.2,286046993.8,N
1579571655.1,286046994.4,N
1579571656.0,286046994.4,N
1579571675.8,286046999.1,N
1579571695.7,286047002.4,N
1579571715.5,286047000.2,N
1579571735.3,286047003.6,N
1579571755.2,286047006.6,N
1579571775.0,286047008.8,N
1579571775.9,286047008.8,N
1579571795.8,286046998.2,N
1579571815.6,286046998.1,N
1579571835.4,286046999.8,N
1579571855.3,286046998.1,N
1579571875.1,286046997.9,N
1579571895.8,286047003.3,N
1579571915.7,286046996.5,N
1579571935.5,286046992.9,N
1579571955.4,286046988.5,N
1579571975.2,286046995.7,N
1579571995.0,286046999.9,N
1579571995.9,286046999.9,N
